Location: Hawaiian Village Mobile Home Park
(32.8359°N, 116.9792°W)
Time: 17:31:25
(UTC+00:00)

Cosmos 2278 Rocket - Pass Details

Date: 01 August 2021
Orbit: 839 x 847 km, 71.0° (Epoch: 23 September)

Event Time Altitude Azimuth Distance (km) Brightness Sun altitude
Exits shadow 12:17:24 - 214° (SW) 2,626 4.2 -9.3°
Reaches altitude 10° 12:17:53 10° 216° (SW) 2,446 4.1 -9.2°
Maximum altitude 12:23:22 55° 293° (WNW) 1,008 2.4 -8.2°
Drops below altitude 10° 12:28:54 10° 11° (N) 2,464 5.2 -7.2°
Sets 12:31:25 0° 16° (NNE) 3,403 6.0 -6.7°
